Location: Conjunto Jardim Filad�lfia
(19.9104°S, 44.0080°W)
Time: 01:24:32
(UTC+00:00)

Daily predictions for brighter satellites

Satellite Brightness Start Highest point End
(mag) Time Altitude Azimuth Time Altitude Azimuth Time Altitude Azimuth
ATLAS 3B R/B 4.3 05:49:59 27° S 05:49:59 27° S 05:53:22 10° S
Cosmos 1844 Rocket 4.3 06:11:30 27° S 06:11:30 27° S 06:14:01 10° SSE
Intelsat 5-3 Rocket 4.2 06:29:57 36° ENE 06:29:57 36° ENE 06:36:00 10° E
Cosmos 371 Rocket 4.0 06:46:47 47° S 06:46:47 47° S 06:50:15 10° SSE
Sakura Rocket 4.5 06:45:28 38° SSW 06:46:37 42° SSE 06:53:01 10° E
Hubble Space Telescope 3.4 06:53:12 11° NE 06:53:12 11° NE 06:54:08 10° NE
Cosmos 2278 Rocket 3.1 06:50:52 26° NNE 06:53:42 45° ENE 06:59:06 10° SSE
ASC 2 Rocket 3.6 06:53:07 66° SW 06:53:42 74° SSE 07:00:46 10° E
Cosmos 332 Rocket 3.8 06:56:01 78° S 06:56:01 78° S 07:00:38 10° SSE
Cosmos 1408 4.4 07:02:06 20° NE 07:03:47 29° E 07:06:56 10° SSE
Cosmos 967 Rocket 4.4 07:01:27 10° SW 07:07:32 55° WNW 07:13:40 10° N
Meteor 1-31 Rocket 3.9 07:11:10 34° SSW 07:11:10 34° SSW 07:13:30 10° SSW
CZ-4B R/B 2.8 07:17:20 60° SW 07:17:20 60° SW 07:20:37 10° SSW
Cosmos 1821 Rocket 3.9 07:14:35 28° NNW 07:17:59 67° W 07:24:18 10° S
STARLINK-33 3.5 07:20:31 52° S 07:20:31 52° S 07:23:15 10° SSE
STARLINK-59 4.3 07:19:21 34° N 07:20:36 47° NE 07:24:31 10° SE
STARLINK-66 3.5 07:22:17 50° S 07:22:17 50° S 07:25:02 10° SSE
STARLINK-56 4.4 07:20:45 32° N 07:22:08 46° NE 07:26:02 10° SE
Cosmos 1727 Rocket 4.0 07:16:40 10° SSW 07:22:53 61° W 07:29:00 10° N
STARLINK-55 3.6 07:23:26 47° SSW 07:23:26 47° SSW 07:26:10 10° SSE
STARLINK-73 4.3 07:22:22 32° N 07:23:49 48° NE 07:27:44 10° SE
STARLINK-28 3.8 07:25:09 40° SSW 07:25:09 40° SSW 07:27:49 10° SSE
Chandra Rocket (1) 4.3 06:56:59 10° WSW 07:25:13 80° NNW 07:31:31 10° ENE
STARLINK-38 4.2 07:23:59 32° N 07:25:28 51° NE 07:29:26 10° SE
Cosmos 1110 Rocket 4.2 07:24:18 41° WNW 07:25:29 49° WSW 07:30:34 10° S
STARLINK-65 4.1 07:25:32 32° N 07:27:05 53° NE 07:31:04 10° SE
STARLINK-53 3.9 07:27:18 34° NNW 07:28:50 61° NE 07:32:51 10° SE
STARLINK-75 3.2 07:29:07 58° WSW 07:29:10 58° SW 07:32:34 10° SSE
Cosmos 1892 3.2 07:29:58 41° WSW 07:29:58 41° WSW 07:33:16 10° SSW
Centaur D AC-29 3.4 07:25:44 19° WSW 07:29:51 61° SSE 08:05:22 10° E
ALOS 2.4 07:26:42 10° NNE 07:31:21 76° ESE 07:36:04 10° S
STARLINK-61 3.7 07:30:55 46° W 07:31:31 51° SW 07:35:25 10° SSE
GPS 2-17 Rocket1 4.4 07:32:18 24° NNW 07:32:25 24° NNW 07:36:20 10° NE
STARLINK-22 3.0 07:33:29 57° WNW 07:34:03 74° SW 07:37:29 10° SSE
STARLINK-41 3.1 07:34:58 53° W 07:35:29 61° SW 07:38:53 10° SSE
Okean 3 Rocket 3.4 07:35:23 16° NNW 07:38:51 69° W 07:43:14 10° S
Meteor PRIRODA 3.7 07:36:50 19° N 07:39:15 50° W 07:42:49 10° SSW
STARLINK-42 3.6 07:39:19 38° WSW 07:39:36 39° SW 07:42:43 10° SSE
STARLINK-1023 3.8 07:39:16 24° N 07:40:40 41° NE 07:43:34 10° SE
H-2A R/B 3.5 07:43:05 27° W 07:43:05 27° W 07:46:39 10° SW
FENGYUN 3A 3.6 07:39:25 10° N 07:44:50 76° WNW 07:50:18 10° SSW
ERBS 3.0 07:45:13 33° NW 07:45:13 33° NW 07:48:07 10° N
GPS 2-15 Rocket1 3.2 07:44:02 25° W 07:46:56 90° N 07:51:52 10° E
Cosmos 1850 Rocket 4.1 07:42:07 10° SSW 07:47:30 83° ESE 07:52:50 10° NNE
STARLINK-1007 3.3 07:46:24 22° NNW 07:48:07 57° NE 07:51:10 10° SE
STARLINK 1040 2.5 07:47:30 33° NNW 07:48:35 83° NE 07:51:26 10° SE
Cosmos 1000 Rocket 4.4 07:46:18 10° SSW 07:52:26 67° W 07:58:29 10° N
Cosmos 2221 3.8 07:51:33 10° SW 07:54:31 19° W 07:54:31 19° W
PSLV R/B 4.4 07:51:13 10° SSE 07:55:16 62° ENE 07:59:16 10° N
STARLINK-58 3.8 07:54:18 24° WNW 07:55:58 41° SW 07:59:22 10° SSE
STARLINK-1010 2.9 07:55:03 19° NNW 07:57:08 82° NE 08:00:18 10° SE
Cosmos 1689 Rocket 2.7 07:54:46 10° S 07:57:30 33° WSW 07:58:54 21° NW
STARLINK-62 3.9 07:55:58 23° WNW 07:57:40 37° SW 08:01:01 10° SSE
STARLINK-34 4.0 07:57:29 22° WNW 07:59:14 35° SW 08:02:33 10° SSE
STARLINK-24 3.8 07:57:20 19° WNW 08:00:01 54° SW 08:04:00 10° SSE
BREEZE-M DEB 3.0 08:00:23 22° NW 08:00:25 22° NW 08:02:21 10° N
Cosmos 2151 3.8 08:00:00 13° NW 08:03:09 29° W 08:06:52 10° SSW
Okean O Rocket 1.9 07:58:54 10° NNE 08:03:13 73° ESE 08:07:35 10° S
STARLINK-1008 2.8 08:01:51 16° NW 08:04:13 76° SW 08:07:22 10° SE
OAO 3 Copernicus 4.3 07:59:30 10° WSW 08:04:38 84° NW 08:09:43 10° NE
Delta 198 3.7 08:01:51 17° W 08:05:12 72° SSW 08:10:19 10° ESE
STARLINK-1016 2.8 08:02:57 15° NW 08:05:24 73° SW 08:08:36 10° SSE
CZ-4B R/B 3.4 08:04:28 10° SW 08:05:31 12° WSW 08:05:31 12° WSW
STARLINK-1025 2.8 08:03:56 15° NW 08:06:25 70° SW 08:09:34 10° SSE
STARLINK-1017 2.9 08:04:48 15° NW 08:07:19 68° SW 08:10:28 10° SSE
STARLINK-81 3.9 08:05:03 15° WNW 08:08:14 49° SW 08:12:11 10° SSE
Cosmos 1302 Rocket 4.5 08:04:30 10° NW 08:09:26 41° WSW 08:14:25 10° S
CZ-4B DEB 4.3 08:04:29 10° N 08:09:45 51° WNW 08:15:06 10° SSW
STARLINK-54 4.1 08:07:00 14° WNW 08:10:05 41° SW 08:13:57 10° SSE
STARLINK-1048 3.0 08:07:59 13° NW 08:10:39 60° SW 08:13:48 10° SSE
STARLINK-1029 3.0 08:08:01 10° NW 08:11:10 80° NE 08:14:21 10° SE
STARLINK-1028 3.0 08:08:35 13° NW 08:11:16 58° SW 08:14:25 10° SSE
STARLINK-77 4.0 08:08:14 13° WNW 08:11:32 44° SW 08:15:27 10° SSE
STARLINK-1049 3.0 08:08:59 13° NW 08:11:42 58° SW 08:14:52 10° SSE
ATLAS 5 CENTAUR R/B 3.9 08:07:52 10° S 08:11:55 28° ESE 08:15:35 10° ENE
Cosmos 2123 Rocket 4.0 08:05:56 10° S 08:12:18 82° W 08:18:37 10° N
STARLINK-1021 3.1 08:09:41 13° NW 08:12:24 55° SW 08:15:33 10° SSE
STARLINK-1051 3.1 08:10:00 13° NW 08:12:43 55° SW 08:15:51 10° SSE
STARLINK-25 4.1 08:09:50 13° WNW 08:13:12 42° SW 08:17:04 10° SSE
Cosmos 1818 3.6 08:07:56 10° SSW 08:13:15 58° WNW 08:18:32 10° N
Cosmos 1741 Rocket 4.1 08:08:29 10° SSW 08:13:34 52° WNW 08:18:36 10° N
STARLINK-1019 3.2 08:10:52 12° NW 08:13:40 53° SW 08:16:51 10° SSE
STARLINK-1012 3.2 08:12:00 12° NW 08:14:51 51° SW 08:18:01 10° SSE
Helios 1A Rocket 3.5 08:10:59 10° NNE 08:15:01 64° ESE 08:19:04 10° S
STARLINK-71 4.4 08:11:47 13° WNW 08:15:04 35° SW 08:18:48 10° SSE
Cosmos 1825 3.0 08:11:43 10° NW 08:15:04 29° W 08:18:27 10° SSW
Cosmos 1484 Rocket 4.5 08:13:12 10° NW 08:15:30 15° W 08:17:49 10° WSW
CZ-4B R/B 3.1 08:10:42 10° N 08:16:01 78° WNW 08:21:28 10° SSW
STARLINK-79 4.2 08:13:01 12° WNW 08:16:30 38° SW 08:20:20 10° SSE
BREEZE-M DEB (TANK) 1.4 08:14:56 10° NW 08:16:59 86° NE 08:20:27 10° SE
STARLINK-1026 3.3 08:14:14 11° NW 08:17:11 47° SW 08:20:19 10° SSE
STARLINK-78 4.3 08:14:38 11° WNW 08:18:10 36° SW 08:21:57 10° SSE
Lacrosse 4 Rocket 1.5 08:13:48 10° NNW 08:18:13 79° WSW 08:22:35 10° SSE
STARLINK-1013 3.4 08:15:18 11° NW 08:18:15 45° SW 08:21:22 10° SSE
STARLINK-1009 3.4 08:16:30 10° NW 08:19:33 43° SW 08:22:40 10° SSE
STARLINK-57 4.5 08:16:23 11° WNW 08:19:55 33° SW 08:23:36 10° SSE
STARLINK-1015 3.5 08:17:37 10° WNW 08:20:38 41° SW 08:23:43 10° SSE
STARLINK-49 4.4 08:17:48 10° WNW 08:21:29 33° SW 08:25:11 10° SSE
Meteor 2-3 Rocket 3.8 08:19:21 10° N 08:25:10 84° W 08:31:02 10° S
Cosmos 1315 Rocket 3.5 08:21:35 10° S 08:25:40 62° E 08:29:38 10° NNE
Cosmos 1606 4.1 08:22:45 10° S 08:26:32 46° E 08:30:14 10° NNE
